Tracking 28570 objects as of 5-Mar-2024
HD Live streaming from Space Station
objects crossing your sky now

GLOBALSTAR M077

Track GLOBALSTAR M077 now!
10-day predictions
GLOBALSTAR M077 is classified as:


NORAD ID: 37191
Int'l Code: 2010-054D
Perigee: 1,420.4 km
Apogee: 1,421.1 km
Inclination: 52.0 °
Period: 114.1 minutes
Semi major axis: 7791 km
RCS: 4.923 m2 (large)
Launch date: October 19, 2010
Source: Globalstar (GLOB)
Launch site: TYURATAM MISSILE AND SPACE COMPLEX (TTMTR)
Your satellite tracking list
Your tracking list is empty




NASA's NSSDC Master Catalog

Two Line Element Set (TLE):
1 37191U 10054D   24064.83820844 -.00000105  00000-0 -52742-5 0  9997
2 37191  52.0063  84.8054 0000473 115.4341  55.7561 12.62270100617870
Source of the keplerian elements: AFSPC